Location: Newark
(47.5167°N, 8.8000°E)
Time: 18:53:31
(UTC+00:00)

OTV 5 (USA 277) - Visible Passes

Search period start: 22 October 2019 00:00
Search period end: 01 November 2019 00:00
Orbit: 310 x 324 km, 54.5° (Epoch: 17 October)

Date Brightness Start Highest point End Pass type
(mag) Time Alt. Az. Time Alt. Az. Time Alt. Az.
29 Oct ? 17:20:02 10° S 17:21:58 17° SE 17:22:16 17° SE visible
30 Oct ? 17:33:44 10° SSW 17:36:20 40° SE 17:36:39 38° ESE visible
31 Oct ? 17:48:06 10° WSW 17:50:50 82° NNW 17:50:56 79° N visible
